TimeEDT,TemperatureF,Dew PointF,Humidity,Sea Level PressureIn,VisibilityMPH,Wind Direction,Wind SpeedMPH,Gust SpeedMPH,PrecipitationIn,Events,Conditions,WindDirDegrees,DateUTC
12:14 AM,53.1,47.8,82,30.10,10.0,Calm,Calm,-,N/A,,Clear,0,2013-08-14 04:14:00
12:34 AM,52.3,47.5,84,30.11,10.0,Calm,Calm,-,N/A,,Scattered Clouds,0,2013-08-14 04:34:00
12:53 AM,50.9,47.1,87,30.12,10.0,Calm,Calm,-,N/A,,Clear,0,2013-08-14 04:53:00
1:14 AM,50.7,47.3,88,30.12,10.0,Calm,Calm,-,N/A,,Clear,0,2013-08-14 05:14:00
1:34 AM,49.8,46.8,89,30.12,10.0,Calm,Calm,-,N/A,,Clear,0,2013-08-14 05:34:00
1:53 AM,49.5,46.6,90,30.12,10.0,Calm,Calm,-,N/A,,Clear,0,2013-08-14 05:53:00
2:14 AM,49.3,46.2,89,30.12,10.0,Calm,Calm,-,N/A,,Clear,0,2013-08-14 06:14:00
2:34 AM,49.3,46.2,89,30.13,10.0,Calm,Calm,-,N/A,,Clear,0,2013-08-14 06:34:00
2:54 AM,49.8,46.0,87,30.12,10.0,Calm,Calm,-,N/A,,Clear,0,2013-08-14 06:54:00
3:14 AM,49.8,46.0,87,30.12,10.0,Calm,Calm,-,N/A,,Clear,0,2013-08-14 07:14:00
3:34 AM,49.5,45.9,87,30.12,10.0,Calm,Calm,-,N/A,,Clear,0,2013-08-14 07:34:00
3:54 AM,49.3,45.9,88,30.12,10.0,Calm,Calm,-,N/A,,Clear,0,2013-08-14 07:54:00
4:14 AM,48.7,45.5,89,30.12,10.0,Calm,Calm,-,N/A,,Clear,0,2013-08-14 08:14:00
4:34 AM,48.4,45.1,89,30.13,10.0,Calm,Calm,-,N/A,,Clear,0,2013-08-14 08:34:00
4:54 AM,48.4,45.3,89,30.13,10.0,Calm,Calm,-,N/A,,Clear,0,2013-08-14 08:54:00
5:14 AM,47.8,45.0,90,30.13,10.0,Calm,Calm,-,N/A,,Clear,0,2013-08-14 09:14:00
5:34 AM,48.0,45.1,90,30.13,10.0,Calm,Calm,-,N/A,,Clear,0,2013-08-14 09:34:00
5:54 AM,47.3,44.4,90,30.14,10.0,Calm,Calm,-,N/A,,Clear,0,2013-08-14 09:54:00
6:14 AM,46.9,44.2,90,30.14,10.0,Calm,Calm,-,N/A,,Clear,0,2013-08-14 10:14:00
6:34 AM,46.4,43.9,91,30.15,10.0,Calm,Calm,-,N/A,,Clear,0,2013-08-14 10:34:00
6:54 AM,45.1,42.8,91,30.16,10.0,Calm,Calm,-,N/A,,Clear,0,2013-08-14 10:54:00
7:13 AM,46.0,43.9,92,30.16,10.0,Calm,Calm,-,N/A,,Clear,0,2013-08-14 11:13:00
7:34 AM,47.7,45.1,91,30.17,10.0,Calm,Calm,-,N/A,,Clear,0,2013-08-14 11:34:00
7:54 AM,49.6,46.4,89,30.17,10.0,Calm,Calm,-,N/A,,Clear,0,2013-08-14 11:54:00
8:13 AM,51.6,47.3,85,30.17,10.0,NNW,3.5,-,N/A,,Clear,330,2013-08-14 12:13:00
8:34 AM,53.2,48.4,84,30.18,10.0,Calm,Calm,-,N/A,,Clear,0,2013-08-14 12:34:00
8:54 AM,54.7,49.1,81,30.18,10.0,North,5.8,-,N/A,,Clear,350,2013-08-14 12:54:00
9:13 AM,55.9,49.6,79,30.18,10.0,North,4.6,-,N/A,,Clear,360,2013-08-14 13:13:00
9:34 AM,56.5,49.8,78,30.19,10.0,NNE,5.8,-,N/A,,Clear,20,2013-08-14 13:34:00
9:54 AM,57.7,49.8,75,30.19,10.0,Calm,Calm,-,N/A,,Clear,0,2013-08-14 13:54:00
10:13 AM,58.8,49.5,71,30.19,10.0,North,3.5,-,N/A,,Clear,360,2013-08-14 14:13:00
10:34 AM,59.9,49.6,69,30.19,10.0,North,5.8,-,N/A,,Clear,10,2013-08-14 14:34:00
10:54 AM,61.7,50.0,65,30.20,10.0,North,4.6,-,N/A,,Scattered Clouds,350,2013-08-14 14:54:00
11:13 AM,61.3,48.6,63,30.20,10.0,NNE,3.5,-,N/A,,Scattered Clouds,20,2013-08-14 15:13:00
11:34 AM,63.1,48.7,59,30.20,10.0,NW,6.9,-,N/A,,Scattered Clouds,320,2013-08-14 15:34:00
11:53 AM,62.8,47.8,58,30.20,10.0,NNE,5.8,-,N/A,,Scattered Clouds,20,2013-08-14 15:53:00
12:14 PM,64.8,48.6,56,30.20,10.0,Calm,Calm,-,N/A,,Scattered Clouds,0,2013-08-14 16:14:00
12:34 PM,64.2,48.2,56,30.19,10.0,ENE,3.5,-,N/A,,Mostly Cloudy,70,2013-08-14 16:34:00
12:53 PM,64.9,47.5,53,30.19,10.0,North,6.9,-,N/A,,Scattered Clouds,10,2013-08-14 16:53:00
1:14 PM,65.3,46.8,51,30.19,10.0,NNE,5.8,-,N/A,,Scattered Clouds,20,2013-08-14 17:14:00
1:34 PM,63.9,47.7,56,30.19,10.0,NNW,4.6,-,N/A,,Mostly Cloudy,340,2013-08-14 17:34:00
1:54 PM,66.0,47.8,52,30.19,10.0,NE,4.6,-,N/A,,Mostly Cloudy,50,2013-08-14 17:54:00
2:14 PM,65.7,46.9,51,30.18,10.0,Calm,Calm,-,N/A,,Mostly Cloudy,0,2013-08-14 18:14:00
2:33 PM,66.7,47.7,50,30.18,10.0,NW,4.6,-,N/A,,Mostly Cloudy,320,2013-08-14 18:33:00
2:54 PM,67.5,47.8,49,30.17,10.0,WNW,4.6,-,N/A,,Scattered Clouds,300,2013-08-14 18:54:00
3:54 PM,66.7,47.1,49,30.17,10.0,WNW,3.5,-,N/A,,Mostly Cloudy,300,2013-08-14 19:54:00
4:14 PM,68.7,47.1,46,30.17,10.0,West,3.5,-,N/A,,Mostly Cloudy,280,2013-08-14 20:14:00
4:33 PM,66.6,47.7,51,30.17,10.0,North,3.5,-,N/A,,Overcast,360,2013-08-14 20:33:00
4:54 PM,66.4,45.3,47,30.17,10.0,Calm,Calm,-,N/A,,Overcast,0,2013-08-14 20:54:00
5:13 PM,66.9,46.0,47,30.16,10.0,Calm,Calm,-,N/A,,Mostly Cloudy,0,2013-08-14 21:13:00
5:34 PM,69.4,48.2,47,30.16,10.0,WSW,6.9,-,N/A,,Overcast,250,2013-08-14 21:34:00
5:54 PM,69.3,49.3,49,30.16,10.0,WSW,5.8,-,N/A,,Overcast,250,2013-08-14 21:54:00
6:13 PM,68.0,48.9,50,30.16,10.0,WNW,4.6,-,N/A,,Scattered Clouds,290,2013-08-14 22:13:00
6:34 PM,64.8,51.3,62,30.16,10.0,Calm,Calm,-,N/A,,Clear,0,2013-08-14 22:34:00
6:54 PM,65.5,49.8,57,30.15,10.0,Calm,Calm,-,N/A,,Scattered Clouds,0,2013-08-14 22:54:00
7:13 PM,63.9,50.2,61,30.15,10.0,Calm,Calm,-,N/A,,Scattered Clouds,0,2013-08-14 23:13:00
7:34 PM,64.0,52.2,65,30.15,10.0,Calm,Calm,-,N/A,,Mostly Cloudy,0,2013-08-14 23:34:00
7:54 PM,66.4,48.7,53,30.15,10.0,Calm,Calm,-,N/A,,Mostly Cloudy,0,2013-08-14 23:54:00
8:13 PM,64.8,52.0,63,30.15,10.0,Calm,Calm,-,N/A,,Overcast,0,2013-08-15 00:13:00
8:34 PM,62.4,53.6,73,30.15,10.0,Calm,Calm,-,N/A,,Mostly Cloudy,0,2013-08-15 00:34:00
8:54 PM,60.6,53.4,77,30.15,10.0,Calm,Calm,-,N/A,,Clear,0,2013-08-15 00:54:00
9:13 PM,57.9,52.2,81,30.16,10.0,Calm,Calm,-,N/A,,Scattered Clouds,0,2013-08-15 01:13:00
9:34 PM,57.4,51.6,81,30.16,10.0,Calm,Calm,-,N/A,,Scattered Clouds,0,2013-08-15 01:34:00
9:54 PM,56.3,52.2,86,30.17,10.0,Calm,Calm,-,N/A,,Clear,0,2013-08-15 01:54:00
10:13 PM,55.0,51.4,88,30.17,10.0,Calm,Calm,-,N/A,,Clear,0,2013-08-15 02:13:00
10:34 PM,54.1,50.5,88,30.17,10.0,Calm,Calm,-,N/A,,Clear,0,2013-08-15 02:34:00
10:54 PM,55.2,51.4,87,30.17,10.0,Calm,Calm,-,N/A,,Clear,0,2013-08-15 02:54:00
11:13 PM,54.7,51.3,88,30.18,10.0,Calm,Calm,-,N/A,,Clear,0,2013-08-15 03:13:00
11:34 PM,53.6,50.4,89,30.18,10.0,Calm,Calm,-,N/A,,Clear,0,2013-08-15 03:34:00
11:54 PM,53.2,50.7,91,30.18,10.0,Calm,Calm,-,N/A,,Clear,0,2013-08-15 03:54:00